Aérodrome :
LOGIN :

S'inscrire | Disclaimer

   EN    FR    IT 

 










Légende :    VFR   VFR Marginal   IFR   IFR Intensif   IFR Très Intensif
Visi : 
Plafond : 
>= 8 km
>= 3000ft
5 à 8 km
1000 à 3000 ft
1500m à 5 km
500 à 1000 ft
800 à 1500m
200 à 500 ft
< 800m
< 200 ft
Symboles :   Orages  Brouillard  Fortes neiges  Fortes précipitations  Vent > 20 kt
SIGMETs :   Divers  Orages  Givrage  Turbulence  Onde Orograph.  Cendres Volcan.







- Altitude de l'aérodrome : 427 ft
- Code IATA : CIA


LIRA - Roma Ciampino

DERNIER METAR :
  • 241250Z 21007KT 170V240 9999 FEW030 25/14 Q1016

METARs EXPIRÉS :
  • 241220Z 24007KT 190V290 9999 SCT030 25/14 Q1016
  • 241150Z VRB06KT 9999 SCT040 26/14 Q1016
  • 241120Z 24007KT 160V280 9999 SCT040 25/14 Q1016
  • 241050Z 25007KT 210V290 9999 SCT040 25/15 Q1016
  • 241020Z VRB05KT 9999 SCT040 25/13 Q1016

TAF TAF LIRA
Valide du 24 à 12h jusqu'au 25 à 12h UTC


241100Z 2412/2512 25010KT CAVOK
BECMG 2416/2418 VRB05KT
BECMG 2510/2512 25010KT
Pas de NOTAMs connus pour ce terrain.



MET'MAP, la Météo Aéronautique d'un coup d'oeil ! - Copyright ORBIFLY Décembre 2007 - Disclaimer

ORBIFLY MET'MAP TEAM :

Programmation & Développement : Alexandra Zaïnal
Conception & Développement : Baudouin d'Aumeries
Co-Programmation & Développement : Marc-Olivier Méhu
Soutien technique & logistique : Manuel Goepfert

Contact : metmap@orbifly.com




SOURCES & CREDITS :

   NOAA